When you browse on this site, cookies collect data to enhance your experience and personalize the content and advertising you see.
Visit our Privacy Policy to learn more. By continuing to use the site, you agree to this use of cookies and data.
  • En España
  • Lista de países
  • Para 7 días
  • Temperatura del agua
  • El tiempo en el mapa
  • Informadores
  • user-avatar
    Iniciar sesión

    Tiempo cada hora Kurytyba

    Hoy, 26 Febrero, Miércoles

    Tiempo Temperatura Precipitaciones Viento Presión Humedad
    00:00 +21°C° 0.8 mm 1 mps 678 mmHg 97%
    01:00 +21°C° 2.7 mm 1 mps 678 mmHg 97%
    02:00 +21°C° 2.7 mm 1 mps 677 mmHg 97%
    03:00 +21°C° 2.7 mm 1 mps 677 mmHg 97%
    04:00 +21°C° 0.3 mm 1 mps 676 mmHg 97%
    05:00 +20°C° 0.3 mm 2 mps 676 mmHg 96%
    06:00 +20°C° 0.3 mm 2 mps 676 mmHg 96%
    07:00 +21°C° 0.4 mm 2 mps 676 mmHg 94%
    08:00 +21°C° 0.4 mm 3 mps 677 mmHg 93%
    09:00 +22°C° 0.4 mm 3 mps 677 mmHg 91%
    10:00 +22°C° 0.7 mm 3 mps 677 mmHg 90%
    11:00 +24°C° 0.7 mm 3 mps 677 mmHg 88%
    12:00 +24°C° 0.7 mm 3 mps 677 mmHg 87%
    13:00 +23°C° 0.9 mm 2 mps 677 mmHg 89%
    14:00 +21°C° 0.9 mm 2 mps 676 mmHg 91%
    15:00 +20°C° 0.9 mm 1 mps 676 mmHg 93%
    16:00 +21°C° 0 mm 1 mps 676 mmHg 91%
    17:00 +21°C° 0 mm 1 mps 676 mmHg 89%
    18:00 +21°C° 0 mm 1 mps 677 mmHg 87%
    19:00 +20°C° 0.1 mm 1 mps 677 mmHg 89%
    20:00 +18°C° 0.1 mm 2 mps 678 mmHg 91%
    21:00 +18°C° 0.1 mm 2 mps 679 mmHg 94%
    22:00 +17°C° 0 mm 2 mps 679 mmHg 93%
    23:00 +16°C° 0 mm 2 mps 679 mmHg 92%

    Mañana, 27 Febrero, Jueves

    Tiempo Temperatura Precipitaciones Viento Presión Humedad
    00:00 +16°C° 0 mm 2 mps 680 mmHg 91%
    01:00 +15°C° 0 mm 2 mps 680 mmHg 88%
    02:00 +15°C° 0 mm 2 mps 679 mmHg 86%
    03:00 +14°C° 0 mm 2 mps 679 mmHg 84%
    04:00 +14°C° 0 mm 1 mps 679 mmHg 87%
    05:00 +13°C° 0 mm 1 mps 679 mmHg 90%
    06:00 +13°C° 0 mm 1 mps 679 mmHg 92%
    07:00 +15°C° 0 mm 1 mps 680 mmHg 83%
    08:00 +16°C° 0 mm 1 mps 681 mmHg 73%
    09:00 +19°C° 0 mm 1 mps 681 mmHg 64%
    10:00 +21°C° 0 mm 1 mps 682 mmHg 58%
    11:00 +23°C° 0 mm 1 mps 682 mmHg 52%
    12:00 +25°C° 0 mm 1 mps 682 mmHg 46%
    13:00 +25°C° 0 mm 1 mps 682 mmHg 47%
    14:00 +25°C° 0 mm 2 mps 681 mmHg 47%
    15:00 +25°C° 0 mm 2 mps 681 mmHg 47%
    16:00 +24°C° 0 mm 2 mps 681 mmHg 53%
    17:00 +21°C° 0 mm 3 mps 680 mmHg 60%
    18:00 +20°C° 0 mm 3 mps 680 mmHg 66%
    19:00 +18°C° 0 mm 3 mps 680 mmHg 72%
    20:00 +16°C° 0 mm 2 mps 681 mmHg 78%
    21:00 +14°C° 0 mm 2 mps 681 mmHg 84%
    22:00 +14°C° 0 mm 2 mps 681 mmHg 87%
    23:00 +14°C° 0 mm 2 mps 681 mmHg 89%

    Pasado mañana, 28 Febrero, Viernes

    Tiempo Temperatura Precipitaciones Viento Presión Humedad
    00:00 +13°C° 0 mm 2 mps 682 mmHg 92%
    01:00 +13°C° 0 mm 1 mps 681 mmHg 93%
    02:00 +13°C° 0 mm 1 mps 681 mmHg 94%
    03:00 +13°C° 0 mm 1 mps 681 mmHg 95%
    04:00 +13°C° 0 mm 1 mps 681 mmHg 95%
    05:00 +11°C° 0 mm 0 mps 681 mmHg 95%
    06:00 +11°C° 0 mm 0 mps 681 mmHg 95%
    07:00 +14°C° 0 mm 1 mps 682 mmHg 85%
    08:00 +18°C° 0 mm 1 mps 683 mmHg 76%
    09:00 +20°C° 0 mm 1 mps 684 mmHg 66%
    10:00 +22°C° 0 mm 1 mps 684 mmHg 57%
    11:00 +24°C° 0 mm 1 mps 684 mmHg 49%
    12:00 +26°C° 0 mm 2 mps 684 mmHg 40%
    13:00 +26°C° 0 mm 2 mps 684 mmHg 40%
    14:00 +27°C° 0 mm 2 mps 684 mmHg 41%
    15:00 +27°C° 0 mm 2 mps 683 mmHg 41%
    16:00 +25°C° 0 mm 3 mps 683 mmHg 51%
    17:00 +22°C° 0 mm 3 mps 682 mmHg 61%
    18:00 +21°C° 0 mm 3 mps 682 mmHg 71%
    19:00 +19°C° 0 mm 3 mps 682 mmHg 78%
    20:00 +18°C° 0 mm 3 mps 682 mmHg 84%
    21:00 +17°C° 0 mm 3 mps 683 mmHg 91%
    22:00 +16°C° 0 mm 2 mps 683 mmHg 91%
    23:00 +16°C° 0 mm 2 mps 683 mmHg 91%

    29 Febrero, Sábado

    Tiempo Temperatura Precipitaciones Viento Presión Humedad
    00:00 +15°C° 0 mm 2 mps 683 mmHg 91%
    01:00 +15°C° 0 mm 1 mps 683 mmHg 90%
    02:00 +15°C° 0 mm 1 mps 682 mmHg 89%
    03:00 +15°C° 0 mm 1 mps 682 mmHg 88%
    04:00 +15°C° 0 mm 1 mps 682 mmHg 89%
    05:00 +14°C° 0 mm 1 mps 682 mmHg 90%
    06:00 +14°C° 0 mm 1 mps 683 mmHg 91%
    07:00 +16°C° 0 mm 1 mps 683 mmHg 83%
    08:00 +19°C° 0 mm 1 mps 684 mmHg 74%
    09:00 +20°C° 0 mm 1 mps 684 mmHg 66%
    10:00 +22°C° 0 mm 1 mps 685 mmHg 58%
    11:00 +25°C° 0 mm 1 mps 685 mmHg 49%
    12:00 +27°C° 0 mm 2 mps 685 mmHg 41%
    13:00 +27°C° 0 mm 2 mps 685 mmHg 42%
    14:00 +27°C° 0 mm 2 mps 684 mmHg 44%
    15:00 +27°C° 0 mm 3 mps 684 mmHg 45%
    16:00 +25°C° 0 mm 3 mps 683 mmHg 53%
    17:00 +22°C° 0 mm 3 mps 683 mmHg 61%
    18:00 +21°C° 0 mm 3 mps 683 mmHg 70%
    19:00 +19°C° 0 mm 3 mps 683 mmHg 76%
    20:00 +18°C° 0 mm 3 mps 683 mmHg 82%
    21:00 +16°C° 0 mm 3 mps 684 mmHg 88%
    22:00 +16°C° 0 mm 3 mps 684 mmHg 89%
    23:00 +15°C° 0 mm 2 mps 684 mmHg 91%

    1 Marzo, Domingo

    Tiempo Temperatura Precipitaciones Viento Presión Humedad
    00:00 +15°C° 0 mm 2 mps 684 mmHg 92%
    01:00 +15°C° 0 mm 2 mps 684 mmHg 92%
    02:00 +15°C° 0 mm 2 mps 683 mmHg 93%
    03:00 +15°C° 0 mm 2 mps 683 mmHg 93%
    04:00 +14°C° 0 mm 2 mps 683 mmHg 94%
    05:00 +14°C° 0 mm 2 mps 683 mmHg 95%
    06:00 +14°C° 0 mm 2 mps 684 mmHg 96%
    07:00 +15°C° 0 mm 2 mps 684 mmHg 88%
    08:00 +17°C° 0 mm 2 mps 685 mmHg 80%
    09:00 +18°C° 0 mm 3 mps 686 mmHg 72%
    10:00 +20°C° 0 mm 3 mps 686 mmHg 67%
    11:00 +21°C° 0 mm 3 mps 686 mmHg 62%
    12:00 +22°C° 0 mm 3 mps 686 mmHg 57%
    13:00 +22°C° 0 mm 3 mps 685 mmHg 56%
    14:00 +23°C° 0 mm 4 mps 685 mmHg 55%
    15:00 +23°C° 0 mm 4 mps 685 mmHg 54%
    16:00 +22°C° 0 mm 4 mps 684 mmHg 59%
    17:00 +20°C° 0 mm 4 mps 684 mmHg 65%
    18:00 +19°C° 0 mm 4 mps 684 mmHg 71%
    19:00 +18°C° 0 mm 3 mps 684 mmHg 78%
    20:00 +16°C° 0 mm 3 mps 684 mmHg 84%
    21:00 +14°C° 0 mm 3 mps 684 mmHg 90%
    22:00 +14°C° 0.1 mm 3 mps 685 mmHg 91%
    23:00 +14°C° 0.1 mm 3 mps 685 mmHg 92%

    2 Marzo, Lunes

    Tiempo Temperatura Precipitaciones Viento Presión Humedad
    00:00 +16°C° 0.1 mm 3 mps 685 mmHg 92%
    01:00 +16°C° 0.1 mm 3 mps 684 mmHg 92%
    02:00 +14°C° 0.1 mm 3 mps 684 mmHg 92%
    03:00 +15°C° 0.1 mm 2 mps 683 mmHg 91%
    04:00 +15°C° 0.1 mm 2 mps 683 mmHg 91%
    05:00 +15°C° 0.1 mm 2 mps 684 mmHg 92%
    06:00 +15°C° 0.1 mm 2 mps 684 mmHg 92%
    07:00 +16°C° 0.1 mm 2 mps 684 mmHg 88%
    08:00 +17°C° 0.1 mm 3 mps 685 mmHg 84%
    09:00 +17°C° 0.1 mm 3 mps 685 mmHg 81%
    10:00 +19°C° 0 mm 3 mps 685 mmHg 73%
    11:00 +20°C° 0 mm 3 mps 685 mmHg 66%
    12:00 +22°C° 0 mm 3 mps 686 mmHg 59%
    13:00 +22°C° 0.1 mm 3 mps 685 mmHg 62%
    14:00 +21°C° 0.1 mm 3 mps 685 mmHg 65%
    15:00 +21°C° 0.1 mm 3 mps 684 mmHg 68%
    16:00 +20°C° 0 mm 3 mps 684 mmHg 72%
    17:00 +19°C° 0 mm 3 mps 683 mmHg 77%
    18:00 +18°C° 0 mm 3 mps 683 mmHg 82%
    19:00 +17°C° 0 mm 3 mps 683 mmHg 84%
    20:00 +16°C° 0 mm 3 mps 683 mmHg 86%
    21:00 +14°C° 0 mm 3 mps 684 mmHg 88%
    22:00 +15°C° 0 mm 2 mps 684 mmHg 90%
    23:00 +15°C° 0 mm 2 mps 684 mmHg 92%
    Mostrar más